Wetbulb
46.59 46.54 47.99 49.55 51.61 52.75 55.28 58.04 59.43 60.31 59.63 59.43 59.62 59.82 60.19 60.59 60.72 60.04 59.74 59.87 59.34 59.26 59.33 58.76 58.33 58.52 57.84 57.83 57.53 57.08 56.20 55.79 53.35 54.42 50.04 43.75 41.29 40.10 39.25 39.86 39.82 39.72 40.10
45.71 46.22 46.44 49.31 52.11 52.96 53.21 55.26 56.79 57.38 58.23 58.53 58.64 59.80 59.97 60.30 60.38 59.76 59.35 59.29 59.07 58.50 58.25 58.09 57.71 57.66 57.42 57.65 57.12 55.95 55.98 55.82 54.50 52.90 44.61 38.55 39.22 37.91 37.98 37.24 37.46 38.81 38.67
42.67 43.51 45.18 46.02 48.97 52.60 54.55 54.92 55.42 55.78 56.25 57.09 58.72 59.05 59.66 59.46 59.45 59.55 59.47 59.08 58.79 58.70 58.12 57.22 57.33 56.85 56.13 56.54 55.96 55.50 55.29 54.86 54.49 52.92 47.13 35.93 34.79 35.49 34.37 34.54 34.89 35.11 37.04
39.41 40.25 41.88 44.23 45.35 49.12 52.79 52.85 53.89 55.24 56.33 56.58 57.22 57.91 58.27 58.61 58.66 58.81 58.50 58.29 58.23 57.90 57.47 57.18 56.81 56.24 55.71 55.54 54.81 54.41 54.19 53.17 52.13 48.58 35.71 34.18 33.79 32.78 33.00 32.41 31.91 32.69 32.69
36.28 37.77 39.56 42.36 44.16 44.89 45.45 47.05 48.08 49.84 50.40 50.66 51.18 51.77 53.74 55.43 55.14 56.71 57.25 57.34 57.14 56.75 55.04 55.44 55.28 52.29 46.93 51.76 54.00 53.45 52.59 49.37 38.18 37.16 34.48 33.09 32.35 31.29 32.22 32.22 32.25 31.67 31.81
34.28 35.15 38.46 38.76 39.29 41.56 42.02 41.86 41.81 43.98 45.54 45.79 45.59 45.70 46.37 47.76 42.22 42.76 44.19 51.22 51.60 51.84 53.13 51.49 43.81 38.08 42.27 43.21 44.52 46.00 48.25 46.51 38.91 37.23 35.15 34.56 33.46 33.28 32.09 32.09 30.74 29.91 30.63
32.81 33.83 35.40 33.87 34.22 36.24 37.22 37.84 39.20 40.06 41.29 41.02 41.54 41.93 42.17 42.53 41.53 41.52 40.57 44.94 46.91 47.67 46.55 42.67 38.65 38.63 38.56 39.62 40.08 40.00 38.39 41.72 42.03 39.80 35.06 35.26 33.46 33.69 32.94 31.86 31.13 31.31 31.25
30.78 31.42 32.42 31.82 32.37 33.49 34.60 35.31 36.04 39.07 38.43 38.45 39.13 39.61 39.76 39.06 40.52 40.59 40.06 42.73 41.34 40.11 40.00 38.85 37.99 36.65 37.46 37.40 36.18 34.64 33.91 34.23 35.16 35.03 35.04 34.10 34.15 34.28 34.30 33.39 32.76 31.11 30.85
27.88 28.90 28.64 29.64 31.01 32.48 33.23 34.85 37.02 37.48 36.97 36.92 36.10 35.52 34.70 36.51 39.42 39.63 38.64 36.14 35.19 34.59 34.99 36.45 36.73 36.00 37.69 38.78 34.37 32.92 32.60 32.72 36.97 38.20 38.10 38.15 37.66 37.02 34.95 33.36 31.64 31.27 28.79
24.44 24.53 25.55 27.57 29.16 31.34 33.37 34.74 36.23 35.49 34.61 33.13 33.20 33.27 33.01 34.10 37.81 38.57 38.08 33.66 33.17 32.46 32.42 33.56 33.69 35.61 37.89 38.37 34.27 33.42 32.40 32.14 32.75 32.78 33.03 35.44 35.37 35.47 35.65 32.77 32.99 31.78 30.12
20.58 21.97 22.80 24.87 27.25 31.06 33.43 34.36 34.97 34.57 32.81 32.59 32.52 32.34 32.73 33.07 34.49 37.90 38.72 33.78 33.92 32.74 32.56 32.31 33.03 37.54 37.89 37.84 36.44 33.79 33.44 33.07 33.98 32.36 32.06 31.97 31.92 31.72 31.69 32.15 32.33 32.24 30.30
17.49 18.07 18.57 21.88 25.59 30.15 32.85 33.45 34.18 33.29 32.66 32.50 32.09 31.53 31.76 32.23 34.06 36.53 38.01 37.00 36.06 33.37 32.54 32.35 33.56 37.26 37.72 37.59 34.79 36.76 36.25 33.39 32.42 31.80 31.16 30.42 29.98 29.81 30.18 30.59 30.94 30.97 30.39
13.46 12.72 14.75 19.82 23.99 29.83 32.26 32.54 33.05 32.85 32.69 32.46 31.71 31.22 30.30 30.88 31.96 35.78 36.93 37.43 36.31 32.66 32.98 34.44 36.82 36.82 36.74 36.39 36.76 36.19 32.48 32.53 32.00 30.65 29.46 28.42 28.64 29.43 29.60 29.19 29.46 29.82 29.95
9.60 11.31 14.07 17.93 22.17 28.75 32.29 32.54 32.63 32.79 32.48 32.48 31.97 31.34 30.39 30.21 30.44 31.14 32.01 32.78 33.66 33.89 35.16 34.05 34.27 33.58 33.94 32.72 31.89 31.94 31.52 31.66 31.20 29.40 27.77 27.39 28.06 27.69 27.75 28.22 27.02 27.20 26.45
9.76 11.44 14.62 20.15 24.40 27.77 30.16 30.09 30.26 31.21 32.38 32.82 33.09 32.75 30.82 29.84 30.78 32.18 32.45 31.84 32.23 32.97 32.38 31.72 30.46 29.65 28.91 28.76 28.77 28.90 29.00 29.15 28.42 27.94 27.01 26.51 26.57 26.67 26.40 27.11 26.76 26.08 24.30
8.85 12.87 14.34 18.02 22.90 26.73 28.03 28.54 31.88 33.44 33.75 34.17 34.50 33.01 31.66 32.94 34.39 34.05 34.33 34.43 34.58 33.45 30.29 28.67 27.45 27.46 26.99 26.85 26.36 26.10 27.18 27.14 27.18 27.64 27.26 26.87 25.81 25.35 24.98 25.42 25.44 24.02 23.50
10.41 12.01 13.82 17.56 20.60 24.43 25.64 24.65 23.21 25.75 28.33 27.77 29.74 33.52 33.23 33.25 33.52 34.01 34.10 34.12 33.88 31.40 27.18 26.20 25.21 24.57 23.96 24.03 24.09 24.26 23.25 23.31 24.35 25.21 25.30 25.33 25.36 24.91 24.19 23.81 24.01 22.42 22.07
11.05 12.06 13.34 15.15 16.62 19.28 20.87 20.99 19.84 17.43 16.91 17.73 22.36 25.00 28.34 30.33 32.23 32.70 30.53 26.09 22.38 22.68 22.12 22.08 22.46 22.96 23.19 22.98 23.11 22.97 23.11 23.14 23.52 23.90 23.86 23.21 23.25 23.54 23.07 23.05 23.38 22.58 22.48
10.68 11.39 12.35 13.18 14.05 15.38 16.57 16.41 15.62 14.58 13.87 15.20 16.44 17.90 18.49 23.85 23.87 23.38 22.23 16.75 15.51 14.94 15.62 15.30 16.13 16.26 16.33 16.59 17.38 18.11 19.29 18.97 19.65 19.48 19.56 21.06 21.14 21.23 20.55 20.71 20.20 20.92 17.30
9.93 11.77 11.22 11.56 11.60 11.64 12.00 11.71 11.59 11.49 11.01 11.05 14.14 14.19 13.56 13.94 11.72 11.20 11.32 11.46 10.87 10.68 11.04 11.35 12.43 13.11 13.15 13.51 14.41 15.05 15.11 15.31 15.24 14.87 14.87 15.30 15.16 15.41 14.59 13.68 13.88 13.58 12.25
8.30 9.07 9.69 9.67 9.42 9.58 9.34 8.97 9.55 9.21 8.81 8.79 8.66 15.14 17.54 9.63 8.83 8.58 8.28 8.18 8.04 8.10 8.15 8.67 9.22 9.62 10.02 10.11 10.12 10.51 11.16 11.95 12.58 13.02 13.11 12.98 12.88 12.79 13.23 14.07 13.85 11.23 10.46
6.78 7.08 7.27 6.75 7.41 7.30 7.29 7.61 7.22 7.06 6.75 6.42 6.99 8.36 13.79 7.79 7.03 6.59 6.57 6.53 6.96 7.37 7.52 6.99 6.68 7.05 7.35 7.20 7.52 7.72 7.65 8.09 8.98 9.17 9.57 10.02 9.98 10.05 10.05 10.47 10.29 10.29 8.49
4.83 4.77 4.91 5.07 5.15 5.62 5.29 5.43 4.93 4.87 4.87 4.84 5.12 5.09 5.05 4.78 5.14 5.02 4.98 5.30 5.42 4.87 5.36 5.18 4.85 4.68 5.61 5.62 5.81 5.37 4.52 5.13 6.16 6.39 5.53 5.80 5.92 6.06 6.56 6.40 7.02 6.01 5.32
2.90 2.70 2.58 2.61 2.67 2.50 2.64 2.53 2.84 3.04 2.65 2.52 2.56 2.82 2.73 2.90 2.87 3.05 3.29 3.41 3.43 3.08 3.13 2.68 3.07 2.87 2.82 2.89 3.13 3.28 3.19 3.45 4.38 4.83 4.54 3.66 3.19 3.41 3.24 3.05 3.57 3.70 3.92
0.76 0.45 0.39 0.04 -0.03 -0.29 0.09 0.19 0.30 0.39 0.24 0.51 0.28 0.40 0.54 0.60 0.71 0.83 0.95 1.12 0.99 -0.08 0.08 0.81 1.43 0.68 0.44 -0.26 0.10 0.53 1.48 3.15 3.36 3.50 2.05 0.92 0.65 0.72 0.41 0.68 1.16 1.29 1.29
-1.34 -1.58 -1.64 -1.99 -2.36 -2.20 -2.42 -2.59 -2.53 -2.21 -2.56 -1.99 -1.96 -1.84 -1.72 -1.94 -1.58 -1.43 -1.32 -1.37 -2.60 -2.51 -2.37 -1.97 -2.07 -2.32 -2.60 -1.96 -1.30 1.51 1.96 3.95 2.76 4.75 5.04 0.38 -1.22 -1.43 -1.18 -1.32 -1.30 -0.82 -1.17
MSLP
1013.55 1012.68 1011.99 1011.28 1010.87 1010.43 1009.99 1009.45 1009.05 1008.87 1008.80 1008.93 1009.11 1009.24 1009.32 1009.50 1009.63 1009.88 1010.18 1010.44 1010.61 1010.73 1010.95 1011.05 1011.18 1011.46 1011.59 1011.81 1012.04 1012.14 1012.27 1012.40 1012.31 1012.28 1012.64 1013.29 1013.89 1014.34 1014.90 1015.13 1015.27 1015.85 1016.23
1014.24 1013.31 1012.52 1011.51 1010.79 1010.28 1009.70 1009.14 1008.74 1008.50 1008.28 1008.19 1008.28 1008.33 1008.37 1008.41 1008.61 1008.87 1009.01 1009.40 1009.69 1009.85 1010.04 1010.24 1010.38 1010.61 1010.68 1010.85 1010.97 1011.07 1011.25 1011.45 1011.56 1011.74 1012.45 1013.31 1013.93 1014.41 1014.79 1015.15 1015.68 1015.65 1016.06
1014.95 1014.03 1012.91 1011.94 1011.10 1010.37 1009.79 1009.22 1008.59 1008.19 1007.91 1007.72 1007.73 1007.68 1007.69 1007.74 1007.78 1007.99 1008.18 1008.37 1008.61 1008.80 1009.05 1009.34 1009.46 1009.69 1009.72 1009.89 1010.05 1010.16 1010.32 1010.53 1010.76 1011.18 1012.12 1013.28 1013.94 1014.35 1015.00 1015.13 1015.53 1015.89 1015.64
1015.91 1014.82 1013.69 1012.60 1011.67 1010.67 1010.04 1009.57 1009.11 1008.50 1008.03 1007.73 1007.56 1007.45 1007.32 1007.28 1007.33 1007.46 1007.59 1007.70 1007.80 1007.87 1008.02 1008.22 1008.43 1008.68 1008.80 1008.94 1009.11 1009.23 1009.46 1009.68 1010.03 1010.31 1011.42 1012.69 1013.49 1014.21 1014.55 1014.91 1015.45 1015.63 1015.81
1016.65 1015.56 1014.47 1013.30 1012.25 1011.19 1010.44 1009.94 1009.48 1009.01 1008.63 1008.35 1008.09 1007.80 1007.57 1007.32 1007.17 1007.06 1007.03 1007.08 1007.22 1007.18 1007.28 1007.32 1007.50 1007.58 1007.77 1007.97 1008.23 1008.38 1008.66 1009.05 1009.61 1010.65 1011.56 1012.47 1013.16 1013.87 1014.02 1014.35 1014.81 1015.36 1015.62
1017.25 1016.34 1015.27 1014.34 1013.37 1012.22 1011.25 1010.64 1010.14 1009.65 1009.14 1008.80 1008.51 1008.28 1007.92 1007.66 1007.62 1007.35 1007.22 1007.03 1006.89 1006.93 1006.93 1006.88 1007.24 1007.45 1007.52 1007.70 1007.76 1007.91 1008.20 1008.73 1009.47 1010.30 1011.09 1011.71 1012.31 1012.85 1013.33 1013.84 1014.67 1015.32 1015.84
1017.56 1016.64 1015.85 1015.17 1014.10 1013.07 1012.02 1011.01 1010.43 1009.94 1009.46 1009.15 1008.81 1008.58 1008.21 1007.89 1007.74 1007.51 1007.33 1007.15 1006.93 1006.86 1006.93 1007.16 1007.55 1007.77 1007.97 1008.26 1008.60 1008.57 1008.84 1009.05 1009.18 1009.50 1010.40 1010.81 1011.46 1011.97 1012.57 1013.76 1014.11 1014.55 1015.06
1018.04 1017.06 1016.11 1015.27 1014.38 1013.42 1012.37 1011.29 1010.36 1009.85 1009.54 1009.15 1008.81 1008.57 1008.42 1008.06 1007.82 1007.55 1007.31 1007.06 1006.98 1007.09 1007.07 1007.14 1007.35 1007.81 1008.04 1008.19 1008.86 1009.13 1009.38 1009.50 1009.66 1009.80 1009.93 1010.50 1010.59 1011.23 1012.08 1012.61 1013.32 1014.28 1014.95
1018.67 1017.51 1016.63 1015.69 1014.48 1013.46 1012.34 1011.36 1010.51 1009.82 1009.35 1009.04 1008.71 1008.41 1008.26 1007.99 1007.78 1007.59 1007.36 1007.30 1007.39 1007.47 1007.46 1007.38 1007.36 1007.64 1007.76 1007.94 1008.59 1009.34 1009.76 1009.82 1009.87 1010.13 1010.13 1010.58 1010.94 1011.38 1011.98 1012.64 1013.50 1014.01 1014.96
1019.42 1018.36 1017.19 1016.00 1014.73 1013.32 1012.25 1011.20 1010.32 1009.67 1009.09 1008.78 1008.60 1008.41 1008.05 1007.89 1007.63 1007.48 1007.34 1007.38 1007.40 1007.56 1007.76 1007.69 1007.52 1007.43 1007.61 1007.90 1008.29 1008.86 1009.69 1009.98 1010.15 1010.40 1010.75 1010.97 1011.50 1011.93 1012.20 1012.55 1013.01 1013.55 1014.39
1020.11 1018.73 1017.28 1015.93 1014.56 1013.17 1011.76 1010.85 1010.13 1009.39 1008.88 1008.66 1008.49 1008.21 1008.05 1007.79 1007.58 1007.34 1007.20 1007.17 1007.08 1007.32 1007.60 1007.87 1007.76 1007.57 1007.57 1007.73 1008.05 1008.57 1009.03 1009.63 1010.16 1010.55 1011.04 1011.51 1011.98 1012.15 1012.48 1012.74 1013.02 1013.52 1014.11
1020.05 1018.73 1017.22 1015.74 1014.21 1012.64 1011.28 1010.30 1009.63 1009.16 1008.74 1008.47 1008.38 1008.21 1007.93 1007.76 1007.56 1007.30 1007.03 1006.91 1006.90 1007.05 1007.16 1007.59 1007.78 1007.79 1007.86 1007.97 1008.35 1008.68 1009.17 1009.71 1010.19 1010.70 1011.20 1011.84 1012.20 1012.57 1013.01 1013.18 1013.29 1013.66 1014.02
1020.26 1018.56 1016.86 1015.40 1013.87 1012.10 1010.82 1009.98 1009.34 1008.90 1008.54 1008.14 1008.07 1008.08 1007.97 1007.76 1007.58 1007.25 1007.01 1006.83 1006.84 1007.12 1007.14 1007.37 1007.87 1008.14 1008.23 1008.37 1008.61 1008.98 1009.69 1010.08 1010.35 1010.73 1011.20 1011.86 1012.36 1012.60 1013.22 1013.82 1013.94 1013.98 1014.31
1019.97 1018.31 1016.73 1015.14 1013.33 1011.69 1010.44 1009.63 1008.98 1008.55 1008.16 1007.87 1007.68 1007.67 1007.79 1007.74 1007.51 1007.26 1007.05 1006.89 1007.02 1007.23 1007.29 1007.72 1008.20 1008.59 1008.81 1008.97 1009.28 1009.74 1010.16 1010.45 1010.68 1011.00 1011.54 1012.12 1012.60 1012.95 1013.22 1013.62 1014.05 1014.23 1014.57
1019.97 1018.26 1016.47 1014.63 1012.82 1011.31 1010.17 1009.35 1008.76 1008.29 1008.03 1007.56 1007.22 1007.08 1007.18 1007.33 1007.19 1007.11 1007.04 1007.03 1007.17 1007.22 1007.64 1008.14 1008.69 1009.13 1009.49 1009.68 1009.93 1010.14 1010.50 1010.98 1011.36 1011.61 1011.99 1012.36 1012.73 1013.10 1013.55 1013.75 1013.92 1014.26 1014.36
1019.90 1018.11 1016.48 1014.76 1012.96 1011.27 1010.15 1009.51 1009.09 1008.50 1008.20 1007.78 1007.38 1007.14 1007.20 1007.19 1007.27 1007.33 1007.22 1007.25 1007.40 1007.61 1007.97 1008.44 1009.00 1009.46 1009.92 1010.30 1010.73 1010.86 1011.14 1011.67 1012.07 1012.06 1012.38 1012.55 1012.86 1013.28 1013.66 1013.82 1014.03 1014.07 1014.45
1019.99 1018.45 1016.84 1015.08 1013.43 1011.73 1010.73 1010.53 1010.15 1009.70 1009.33 1009.15 1008.51 1007.62 1007.53 1007.80 1008.06 1008.16 1008.10 1008.24 1008.16 1008.00 1008.54 1009.20 1009.57 1010.06 1010.59 1011.07 1011.37 1011.46 1012.14 1012.56 1012.72 1012.85 1012.76 1013.07 1013.32 1013.49 1013.81 1014.00 1014.26 1014.42 1014.66
1020.36 1018.98 1017.48 1016.00 1014.71 1013.53 1012.47 1011.82 1011.61 1011.64 1011.46 1011.26 1010.65 1010.22 1009.63 1009.27 1008.96 1009.19 1009.58 1009.47 1010.13 1009.98 1010.13 1010.70 1010.78 1010.95 1011.26 1011.78 1011.95 1012.15 1012.72 1013.00 1013.24 1013.32 1013.38 1013.55 1013.61 1013.75 1014.05 1014.09 1014.18 1014.45 1014.66
1021.18 1019.87 1018.52 1017.28 1016.32 1015.45 1014.45 1013.85 1013.67 1013.60 1013.54 1013.28 1012.73 1012.20 1012.06 1011.66 1011.33 1011.42 1011.55 1012.02 1012.85 1012.90 1012.84 1012.76 1012.89 1012.91 1012.94 1013.02 1013.20 1013.46 1013.64 1013.71 1013.92 1014.10 1014.21 1014.20 1014.14 1014.09 1014.32 1014.37 1014.34 1014.41 1014.70
1022.09 1021.04 1019.94 1018.99 1018.15 1017.21 1016.45 1016.04 1015.92 1015.71 1015.52 1015.21 1014.78 1014.71 1014.39 1013.52 1013.70 1014.34 1014.50 1014.49 1014.21 1015.17 1014.94 1014.73 1014.65 1014.62 1014.81 1014.78 1014.56 1014.56 1014.49 1014.58 1014.73 1014.89 1015.10 1015.06 1015.06 1014.86 1014.84 1014.87 1014.83 1014.93 1015.04
1023.46 1022.49 1021.61 1020.61 1019.80 1019.11 1018.55 1018.23 1018.09 1017.76 1017.56 1017.26 1017.08 1016.53 1016.29 1016.22 1016.47 1016.55 1016.55 1016.54 1016.49 1016.66 1016.66 1016.49 1016.38 1016.31 1016.23 1016.02 1015.66 1015.61 1015.54 1015.48 1015.63 1015.65 1015.79 1015.73 1015.69 1015.63 1015.45 1015.46 1015.46 1015.41 1015.50
1024.59 1023.76 1022.83 1022.13 1021.54 1020.75 1020.23 1020.16 1019.85 1019.51 1019.31 1019.07 1018.83 1018.48 1018.09 1018.06 1018.11 1018.09 1018.13 1018.22 1018.23 1018.25 1017.82 1017.81 1017.52 1017.53 1017.36 1016.98 1016.92 1016.52 1016.48 1016.41 1016.34 1016.38 1016.45 1016.46 1016.40 1016.28 1016.18 1016.18 1016.09 1015.96 1015.90
1025.42 1024.71 1023.99 1023.42 1022.89 1022.40 1021.90 1021.60 1021.18 1020.97 1020.79 1020.52 1020.22 1019.93 1019.75 1019.53 1019.43 1019.34 1019.22 1019.09 1019.04 1019.11 1018.60 1018.50 1018.40 1018.07 1018.02 1017.98 1017.84 1017.57 1017.44 1017.32 1017.06 1016.93 1016.90 1016.90 1016.81 1016.72 1016.63 1016.55 1016.43 1016.29 1016.19
1026.21 1025.82 1025.21 1024.69 1024.24 1023.82 1023.47 1023.03 1022.63 1022.20 1022.04 1021.74 1021.44 1021.22 1021.01 1020.77 1020.50 1020.37 1020.27 1020.13 1019.85 1019.63 1019.47 1019.55 1019.15 1018.71 1018.49 1018.46 1018.42 1018.14 1018.04 1017.88 1017.50 1017.26 1017.20 1017.10 1016.93 1016.76 1016.73 1016.61 1016.45 1016.32 1016.23
1026.97 1026.76 1026.22 1025.90 1025.51 1025.08 1024.54 1024.10 1023.77 1023.59 1023.20 1022.82 1022.58 1022.26 1022.02 1021.77 1021.41 1021.22 1021.12 1020.85 1020.72 1020.50 1020.08 1019.71 1019.44 1019.36 1019.19 1018.89 1018.62 1018.32 1018.08 1017.63 1017.31 1017.16 1017.14 1017.21 1017.12 1016.89 1016.75 1016.62 1016.44 1016.26 1016.16
1027.82 1027.48 1027.07 1026.69 1026.36 1025.98 1025.60 1025.25 1024.93 1024.48 1024.08 1023.70 1023.46 1023.11 1022.85 1022.57 1022.24 1021.97 1021.75 1021.49 1021.16 1020.91 1020.63 1020.13 1019.82 1019.81 1019.48 1018.92 1018.72 1018.48 1018.13 1017.56 1017.08 1016.67 1016.44 1016.69 1016.69 1016.57 1016.45 1016.29 1016.15 1015.96 1015.69
Wind_Speed
14 9 8 8 9 9 8 9 10 10 8 10 10 12 14 15 16 15 15 15 16 16 14 14 15 13 10 9 9 9 10 9 12 8 3 2 3 3 3 2 3 3 3
15 15 12 9 9 9 9 8 7 7 7 8 9 10 12 13 14 16 16 14 15 14 14 13 13 9 12 11 9 11 11 10 9 14 3 3 2 2 3 3 2 2 2
17 16 15 13 10 10 9 10 8 7 7 7 8 9 9 10 11 12 14 14 14 14 13 12 13 12 13 10 11 11 10 9 9 9 4 1 2 2 2 3 2 2 2
17 16 16 15 14 11 9 9 9 7 5 5 4 5 5 6 8 10 11 12 13 13 13 13 13 13 14 13 12 13 11 10 9 5 2 3 2 2 2 3 2 1 1
16 16 16 17 17 13 9 8 7 7 6 5 5 5 5 4 3 6 9 11 12 11 10 11 13 13 15 15 9 10 9 6 3 3 3 2 3 3 4 3 2 2 1
17 17 16 17 17 15 12 8 7 8 8 6 5 5 5 4 4 5 4 5 6 7 9 8 4 4 4 5 6 7 8 7 5 4 4 4 4 4 3 4 3 2 3
17 17 15 18 18 17 15 11 9 9 6 6 6 6 6 5 5 6 7 5 5 5 5 5 4 2 5 5 8 10 9 8 2 5 4 4 4 6 6 5 3 3 2
18 18 15 16 17 18 17 13 8 7 7 6 6 5 5 4 6 6 6 2 2 2 2 5 6 6 6 7 6 6 6 5 4 2 4 4 3 8 6 4 5 5 3
16 17 18 17 17 16 17 16 13 9 6 6 5 5 5 6 7 6 3 3 3 3 2 2 5 6 9 12 8 8 5 4 6 9 12 11 12 13 9 7 5 6 2
16 18 17 17 17 16 15 15 11 7 6 4 4 5 5 5 6 8 6 2 4 3 1 2 6 7 11 13 9 9 8 6 7 6 5 9 8 8 8 3 6 6 4
17 17 18 17 17 16 15 12 12 9 5 4 5 3 4 4 5 7 9 4 4 5 4 2 1 10 11 12 11 7 6 9 10 7 7 6 5 4 3 3 4 3 2
18 18 17 18 15 13 14 12 11 8 6 5 4 3 2 3 4 5 8 8 8 5 5 3 3 9 10 11 7 13 17 11 7 7 6 5 5 4 3 4 5 5 4
18 18 18 18 16 15 12 11 9 7 6 5 5 4 3 2 1 3 4 6 8 3 4 7 11 12 13 11 16 16 9 5 6 6 6 4 2 4 5 3 4 5 4
18 18 16 16 16 14 9 7 7 6 6 6 5 5 4 3 2 2 1 2 7 6 10 7 9 10 9 8 7 6 3 2 4 5 5 5 4 3 3 2 2 2 2
16 16 16 13 15 13 9 5 4 4 5 5 6 5 6 5 5 5 4 3 3 7 8 5 6 4 4 5 5 5 4 3 4 4 5 4 4 3 2 1 2 2 2
15 13 12 12 12 10 5 3 16 14 16 14 6 2 1 2 8 9 8 10 13 10 4 5 5 4 4 4 4 5 5 5 2 3 3 4 4 3 2 2 1 2 2
14 15 12 11 10 9 3 4 5 8 16 24 28 13 6 6 6 6 8 9 10 8 6 5 6 6 5 5 4 5 4 3 2 3 3 2 3 2 3 2 1 1 1
15 17 11 10 10 9 8 7 6 7 8 9 14 23 28 24 16 16 18 16 8 10 7 6 6 6 5 5 4 4 3 2 2 2 2 2 2 2 2 2 3 2 2
13 12 12 10 10 11 9 9 9 9 8 8 8 12 17 21 25 26 23 10 8 8 8 8 7 7 6 6 6 5 4 3 3 3 2 1 1 1 1 1 1 3 3
12 19 15 10 10 11 11 11 10 10 10 10 10 11 10 11 12 11 11 9 8 7 7 8 8 7 7 6 5 4 4 4 4 3 3 3 3 2 1 1 1 1 2
9 10 15 10 10 10 10 10 9 9 9 9 9 12 22 10 9 9 8 9 9 7 7 6 6 6 5 6 6 5 5 4 4 4 3 3 3 2 2 3 3 2 1
9 9 9 10 9 10 10 9 9 9 9 9 8 10 20 9 8 7 7 7 7 6 6 6 5 6 6 6 6 5 5 5 4 4 4 4 4 3 3 3 3 3 2
9 10 10 9 9 10 9 9 8 9 8 8 8 8 8 8 7 7 7 6 6 6 6 6 5 5 5 5 5 5 5 4 3 3 3 3 3 3 3 4 4 3 2
8 9 9 8 9 8 8 8 8 10 9 8 8 7 7 7 7 7 7 6 6 6 6 6 6 7 6 5 5 4 4 5 4 4 5 4 4 4 4 4 4 5 5
7 7 7 7 7 7 7 8 7 7 7 7 7 7 7 7 6 6 6 5 5 6 6 5 5 8 8 10 8 8 8 9 7 7 3 5 6 7 6 5 6 5 5
7 7 6 6 7 7 7 7 7 7 7 6 6 6 6 6 6 6 6 6 6 6 7 6 7 9 10 7 8 11 11 12 10 12 6 5 5 5 5 6 8 6 7
Wind_Direction
335 312 312 311 305 298 276 259 248 239 218 221 222 222 219 221 219 215 222 224 226 228 228 231 232 227 228 225 223 227 229 224 245 247 206 142 171 145 144 126 143 167 206
342 335 315 311 311 307 298 278 254 240 235 227 224 224 226 223 217 217 217 219 227 230 232 229 231 223 226 225 219 220 224 217 230 251 185 168 154 102 143 147 175 160 190
344 335 328 318 317 313 312 310 293 270 251 242 237 235 236 225 218 216 220 219 221 226 226 222 229 221 226 227 224 226 228 233 230 235 193 92 105 133 125 106 153 203 172
337 335 331 328 319 311 313 318 323 320 315 316 296 274 243 223 217 218 218 222 224 226 224 224 226 227 229 228 228 228 230 228 222 203 132 148 138 140 132 154 177 160 182
336 334 333 329 325 315 317 316 319 323 328 326 324 320 313 280 253 239 224 227 231 229 220 220 223 219 221 226 230 226 223 217 158 155 140 117 159 159 184 154 120 136 176
337 335 329 340 333 325 319 315 318 318 319 312 305 293 292 289 321 313 294 261 240 233 229 225 172 162 174 185 209 219 195 187 183 154 163 181 173 161 140 146 128 150 212
333 333 334 337 331 326 319 310 305 304 302 305 307 305 287 281 303 298 284 256 246 239 232 186 174 160 135 119 91 80 64 62 80 154 164 183 151 169 132 143 144 144 158
327 328 333 330 325 322 320 314 298 291 282 278 275 274 281 275 286 288 290 232 135 104 173 182 169 167 172 142 128 94 83 68 60 101 131 156 136 141 146 155 139 106 78
326 324 327 323 318 315 313 310 303 288 271 265 258 263 254 257 256 260 209 154 137 123 92 137 155 159 168 157 134 128 108 90 89 97 109 111 121 132 137 125 143 142 115
323 318 314 313 309 305 303 300 293 266 260 264 258 256 253 248 247 250 220 170 150 148 116 149 168 159 162 162 148 148 142 146 129 101 85 92 94 125 130 85 151 152 125
316 310 310 306 303 297 295 294 286 270 255 244 247 247 253 245 254 247 221 199 177 162 158 168 191 161 163 165 157 161 160 144 132 119 113 109 104 98 97 89 81 109 124
315 311 307 304 300 294 293 294 284 265 246 236 226 239 239 252 247 250 230 215 185 165 163 150 152 152 146 143 137 141 137 128 129 130 128 125 120 106 80 78 81 82 71
314 309 307 303 297 292 292 290 286 259 246 236 218 217 218 223 234 205 197 181 165 121 135 138 139 138 130 124 131 130 126 136 139 139 135 121 109 110 104 83 75 91 93
312 308 305 302 298 291 289 280 275 263 248 240 221 211 203 211 201 193 140 126 137 128 129 115 114 106 99 98 98 91 79 95 130 129 119 111 113 113 121 135 131 123 115
312 308 307 303 305 300 285 275 280 274 266 259 241 218 191 204 210 186 164 137 142 131 119 111 115 112 111 103 93 92 86 80 103 113 123 125 126 115 112 127 143 148 139
315 318 312 310 308 297 290 313 36 40 35 19 320 219 342 192 174 176 167 153 137 126 102 120 108 98 96 93 98 93 76 77 58 108 122 128 137 141 140 147 142 132 143
324 324 320 319 323 325 9 11 8 5 27 31 26 37 74 98 112 125 106 104 104 98 98 89 91 88 82 75 72 73 73 56 38 53 87 104 121 121 147 146 145 126 134
337 338 336 337 343 348 4 28 37 32 19 11 11 30 48 54 64 63 58 52 37 40 51 55 66 71 76 77 77 78 85 71 56 67 79 89 110 129 159 172 171 176 175
346 351 350 354 0 6 15 29 33 35 30 21 17 16 16 38 53 50 51 53 40 34 33 44 41 44 50 48 44 44 48 53 54 42 22 52 73 109 164 196 185 176 144
351 356 4 5 8 16 23 29 26 29 29 27 24 29 11 32 41 34 30 33 53 35 26 30 26 31 31 28 33 35 45 45 36 38 19 13 4 10 340 305 263 205 205
349 353 2 10 15 18 22 25 24 27 26 28 25 25 41 40 37 37 36 30 31 30 24 24 23 24 22 20 23 22 21 25 21 13 359 352 356 338 343 318 297 270 248
352 353 2 9 7 15 22 21 21 24 25 22 17 21 31 34 36 37 37 34 27 23 24 17 19 17 12 17 8 14 10 5 6 8 354 349 343 335 327 306 299 287 268
356 359 5 7 9 8 16 17 21 20 18 18 17 17 18 23 23 24 23 22 24 13 16 16 10 12 11 5 3 1 350 338 335 331 314 307 301 298 294 286 283 275 250
3 360 4 6 8 8 8 9 11 17 13 12 13 13 13 12 15 15 15 8 11 13 12 357 354 6 359 358 346 342 327 311 308 305 300 287 283 282 273 270 270 265 264
4 357 4 1 360 359 358 4 6 2 3 5 3 4 3 359 3 5 360 359 2 351 350 350 354 349 348 340 332 328 318 319 302 287 269 260 264 266 263 262 264 262 257
355 355 357 358 356 356 356 354 352 354 354 355 353 352 352 349 349 349 349 354 350 339 338 338 335 332 328 327 326 322 323 319 305 287 269 230 242 251 251 250 252 249 247